Time,TemperatureF,DewpointF,PressureIn,WindDirection,WindDirectionDegrees,WindSpeedMPH,WindSpeedGustMPH,Humidity,HourlyPrecipIn,Conditions,Clouds,dailyrainin,SoftwareType,DateUTC
2013-02-12 00:00:00,68.5,64.2,30.10,SSW,202,3.0,4.0,86,0.00,,SKC,0.00,VWS V14.01,2013-02-12 05:00:00,
2013-02-12 00:05:00,68.4,64.1,30.09,SSW,202,2.0,2.0,86,0.00,,SKC,0.00,VWS V14.01,2013-02-12 05:05:00,
2013-02-12 00:10:00,68.3,64.0,30.09,SSW,202,1.0,3.0,86,0.00,,SKC,0.00,VWS V14.01,2013-02-12 05:10:00,
2013-02-12 00:15:00,68.1,63.8,30.09,SSW,202,0.0,2.0,86,0.00,,SKC,0.00,VWS V14.01,2013-02-12 05:15:00,
2013-02-12 00:20:00,67.8,63.8,30.09,SSW,202,1.0,3.0,87,0.00,,SKC,0.00,VWS V14.01,2013-02-12 05:20:00,
2013-02-12 00:25:00,67.6,63.6,30.09,SSW,202,2.0,3.0,87,0.00,,SKC,0.00,VWS V14.01,2013-02-12 05:25:00,
2013-02-12 00:30:00,67.6,63.9,30.09,SSW,200,2.0,4.0,88,0.00,,SKC,0.00,VWS V14.01,2013-02-12 05:30:00,
2013-02-12 00:35:00,67.6,63.9,30.08,SSE,168,1.0,5.0,88,0.00,,SKC,0.00,VWS V14.01,2013-02-12 05:35:00,
2013-02-12 00:40:00,67.6,63.9,30.09,South,169,2.0,4.0,88,0.00,,SKC,0.00,VWS V14.01,2013-02-12 05:40:00,
2013-02-12 00:45:00,67.4,63.7,30.08,South,169,1.0,3.0,88,0.00,,SKC,0.00,VWS V14.01,2013-02-12 05:45:00,
2013-02-12 00:50:00,67.3,63.6,30.08,South,169,3.0,4.0,88,0.00,,SKC,0.00,VWS V14.01,2013-02-12 05:50:00,
2013-02-12 00:55:00,67.2,63.5,30.08,South,169,2.0,5.0,88,0.00,,SKC,0.00,VWS V14.01,2013-02-12 05:55:00,
2013-02-12 01:00:00,67.1,63.4,30.08,South,169,2.0,4.0,88,0.00,,SKC,0.00,VWS V14.01,2013-02-12 06:00:00,
2013-02-12 01:05:00,67.1,63.4,30.08,South,169,3.0,5.0,88,0.00,,SKC,0.00,VWS V14.01,2013-02-12 06:05:00,
2013-02-12 01:10:00,67.0,63.7,30.08,South,169,1.0,4.0,89,0.00,,SKC,0.00,VWS V14.01,2013-02-12 06:10:00,
2013-02-12 01:15:00,67.0,63.7,30.08,South,175,3.0,5.0,89,0.00,,SKC,0.00,VWS V14.01,2013-02-12 06:15:00,
2013-02-12 01:20:00,67.0,63.7,30.08,South,183,1.0,5.0,89,0.00,,SKC,0.00,VWS V14.01,2013-02-12 06:20:00,
2013-02-12 01:25:00,67.1,63.8,30.08,SSW,196,2.0,6.0,89,0.00,,SKC,0.00,VWS V14.01,2013-02-12 06:25:00,
2013-02-12 01:30:00,67.2,63.8,30.08,SSW,195,4.0,5.0,89,0.00,,SKC,0.00,VWS V14.01,2013-02-12 06:30:00,
2013-02-12 01:35:00,67.3,64.0,30.08,South,190,3.0,5.0,89,0.00,,SKC,0.00,VWS V14.01,2013-02-12 06:35:00,
2013-02-12 01:40:00,67.3,63.6,30.08,SSW,198,6.0,7.0,88,0.00,,SKC,0.00,VWS V14.01,2013-02-12 06:40:00,
2013-02-12 01:45:00,67.5,63.8,30.08,SSW,195,4.0,8.0,88,0.00,,SKC,0.00,VWS V14.01,2013-02-12 06:45:00,
2013-02-12 01:50:00,67.6,63.9,30.08,SSW,204,1.0,6.0,88,0.00,,SKC,0.00,VWS V14.01,2013-02-12 06:50:00,
2013-02-12 01:55:00,67.5,63.8,30.08,SSW,199,1.0,6.0,88,0.00,,SKC,0.00,VWS V14.01,2013-02-12 06:55:00,
2013-02-12 02:00:00,67.4,63.7,30.08,South,182,3.0,5.0,88,0.00,,SKC,0.00,VWS V14.01,2013-02-12 07:00:00,
2013-02-12 02:05:00,67.3,63.6,30.08,South,182,2.0,4.0,88,0.00,,SKC,0.00,VWS V14.01,2013-02-12 07:05:00,
2013-02-12 02:10:00,67.2,63.5,30.08,South,182,3.0,5.0,88,0.00,,SKC,0.00,VWS V14.01,2013-02-12 07:10:00,
2013-02-12 02:15:00,67.0,63.3,30.08,South,186,3.0,4.0,88,0.00,,SKC,0.00,VWS V14.01,2013-02-12 07:15:00,
2013-02-12 02:20:00,66.9,63.6,30.08,South,186,0.0,5.0,89,0.00,,SKC,0.00,VWS V14.01,2013-02-12 07:20:00,
2013-02-12 02:25:00,66.8,63.5,30.08,South,186,2.0,4.0,89,0.00,,SKC,0.00,VWS V14.01,2013-02-12 07:25:00,
2013-02-12 02:30:00,66.7,63.4,30.07,South,186,1.0,4.0,89,0.00,,SKC,0.00,VWS V14.01,2013-02-12 07:30:00,
2013-02-12 02:35:00,66.6,63.3,30.07,South,186,2.0,4.0,89,0.00,,SKC,0.00,VWS V14.01,2013-02-12 07:35:00,
2013-02-12 02:40:00,66.5,63.2,30.07,South,186,1.0,2.0,89,0.00,,SKC,0.00,VWS V14.01,2013-02-12 07:40:00,
2013-02-12 02:45:00,66.3,63.3,30.07,South,186,0.0,3.0,90,0.00,,SKC,0.00,VWS V14.01,2013-02-12 07:45:00,
2013-02-12 02:50:00,66.3,63.3,30.06,South,186,1.0,3.0,90,0.00,,SKC,0.00,VWS V14.01,2013-02-12 07:50:00,
2013-02-12 02:55:00,66.2,63.2,30.06,South,186,1.0,3.0,90,0.00,,SKC,0.00,VWS V14.01,2013-02-12 07:55:00,
2013-02-12 03:00:00,66.1,63.1,30.06,South,186,2.0,4.0,90,0.00,,SKC,0.00,VWS V14.01,2013-02-12 08:00:00,
2013-02-12 03:05:00,65.9,62.9,30.06,South,186,0.0,3.0,90,0.00,,SKC,0.00,VWS V14.01,2013-02-12 08:05:00,
2013-02-12 03:10:00,65.8,63.1,30.06,South,186,1.0,3.0,91,0.00,,SKC,0.00,VWS V14.01,2013-02-12 08:10:00,
2013-02-12 03:15:00,65.7,63.0,30.06,South,186,1.0,3.0,91,0.00,,SKC,0.00,VWS V14.01,2013-02-12 08:15:00,
2013-02-12 03:20:00,65.7,63.0,30.06,South,186,1.0,2.0,91,0.00,,SKC,0.00,VWS V14.01,2013-02-12 08:20:00,
2013-02-12 03:25:00,65.7,63.0,30.06,South,186,1.0,2.0,91,0.00,,SKC,0.00,VWS V14.01,2013-02-12 08:25:00,
2013-02-12 03:30:00,65.7,63.0,30.06,South,186,2.0,2.0,91,0.00,,SKC,0.00,VWS V14.01,2013-02-12 08:30:00,
2013-02-12 03:35:00,65.6,63.2,30.06,South,186,2.0,3.0,92,0.00,,SKC,0.00,VWS V14.01,2013-02-12 08:35:00,
2013-02-12 03:40:00,65.6,63.2,30.06,South,186,0.0,2.0,92,0.00,,SKC,0.00,VWS V14.01,2013-02-12 08:40:00,
2013-02-12 03:45:00,65.6,63.2,30.06,South,186,1.0,2.0,92,0.00,,SKC,0.00,VWS V14.01,2013-02-12 08:45:00,
2013-02-12 03:50:00,65.6,63.2,30.06,South,186,0.0,2.0,92,0.00,,SKC,0.00,VWS V14.01,2013-02-12 08:50:00,
2013-02-12 03:55:00,65.6,63.2,30.06,South,186,0.0,1.0,92,0.00,,SKC,0.00,VWS V14.01,2013-02-12 08:55:00,
2013-02-12 04:00:00,65.5,63.1,30.06,South,186,0.0,1.0,92,0.00,,SKC,0.00,VWS V14.01,2013-02-12 09:00:00,
2013-02-12 04:05:00,65.4,63.0,30.06,South,186,0.0,1.0,92,0.00,,SKC,0.00,VWS V14.01,2013-02-12 09:05:00,
2013-02-12 04:10:00,65.3,62.9,30.05,South,186,1.0,2.0,92,0.00,,SKC,0.00,VWS V14.01,2013-02-12 09:10:00,
2013-02-12 04:15:00,65.2,62.8,30.05,South,186,1.0,3.0,92,0.00,,SKC,0.00,VWS V14.01,2013-02-12 09:15:00,
2013-02-12 04:20:00,65.1,62.7,30.05,South,186,2.0,3.0,92,0.00,,SKC,0.00,VWS V14.01,2013-02-12 09:20:00,
2013-02-12 04:25:00,65.0,62.6,30.05,South,186,1.0,1.0,92,0.00,,SKC,0.00,VWS V14.01,2013-02-12 09:25:00,
2013-02-12 04:30:00,64.9,62.5,30.05,South,186,2.0,2.0,92,0.00,,SKC,0.00,VWS V14.01,2013-02-12 09:30:00,
2013-02-12 04:35:00,64.9,62.8,30.05,South,186,2.0,3.0,93,0.00,,SKC,0.00,VWS V14.01,2013-02-12 09:35:00,
2013-02-12 04:40:00,64.8,62.7,30.05,South,186,2.0,3.0,93,0.00,,SKC,0.00,VWS V14.01,2013-02-12 09:40:00,
2013-02-12 04:45:00,64.7,62.6,30.05,South,186,1.0,4.0,93,0.00,,SKC,0.00,VWS V14.01,2013-02-12 09:45:00,
2013-02-12 04:50:00,64.7,62.6,30.05,South,186,1.0,4.0,93,0.00,,SKC,0.00,VWS V14.01,2013-02-12 09:50:00,
2013-02-12 04:55:00,64.7,62.6,30.05,South,184,2.0,5.0,93,0.00,,SKC,0.00,VWS V14.01,2013-02-12 09:55:00,
2013-02-12 05:00:00,64.7,62.6,30.05,South,184,1.0,4.0,93,0.00,,SKC,0.00,VWS V14.01,2013-02-12 10:00:00,
2013-02-12 05:05:00,64.7,62.6,30.05,South,181,4.0,5.0,93,0.00,,SKC,0.00,VWS V14.01,2013-02-12 10:05:00,
2013-02-12 05:10:00,64.7,62.6,30.05,South,180,2.0,5.0,93,0.00,,SKC,0.00,VWS V14.01,2013-02-12 10:10:00,
2013-02-12 05:15:00,64.6,62.5,30.05,South,180,1.0,3.0,93,0.00,,SKC,0.00,VWS V14.01,2013-02-12 10:15:00,
2013-02-12 05:20:00,64.6,62.5,30.05,South,179,1.0,4.0,93,0.00,,SKC,0.00,VWS V14.01,2013-02-12 10:20:00,
2013-02-12 05:25:00,64.6,62.8,30.05,South,175,4.0,5.0,94,0.00,,SKC,0.00,VWS V14.01,2013-02-12 10:25:00,
2013-02-12 05:30:00,64.7,62.9,30.05,South,171,2.0,6.0,94,0.00,,SKC,0.00,VWS V14.01,2013-02-12 10:30:00,
2013-02-12 05:35:00,64.7,62.9,30.05,SSE,168,3.0,6.0,94,0.00,,SKC,0.00,VWS V14.01,2013-02-12 10:35:00,
2013-02-12 05:40:00,64.8,63.0,30.06,South,170,2.0,6.0,94,0.00,,SKC,0.00,VWS V14.01,2013-02-12 10:40:00,
2013-02-12 05:45:00,64.8,63.0,30.06,South,169,2.0,4.0,94,0.00,,SKC,0.00,VWS V14.01,2013-02-12 10:45:00,
2013-02-12 05:50:00,64.8,63.0,30.06,South,176,2.0,7.0,94,0.00,,SKC,0.00,VWS V14.01,2013-02-12 10:50:00,
2013-02-12 05:55:00,64.8,63.0,30.06,South,182,2.0,6.0,94,0.00,,SKC,0.00,VWS V14.01,2013-02-12 10:55:00,
2013-02-12 06:00:00,64.8,63.0,30.06,South,182,2.0,5.0,94,0.00,,SKC,0.00,VWS V14.01,2013-02-12 11:00:00,
2013-02-12 06:05:00,64.8,63.0,30.06,South,178,1.0,6.0,94,0.00,,SKC,0.00,VWS V14.01,2013-02-12 11:05:00,
2013-02-12 06:10:00,64.7,62.9,30.06,South,178,1.0,4.0,94,0.00,,SKC,0.00,VWS V14.01,2013-02-12 11:10:00,
2013-02-12 06:15:00,64.6,62.8,30.06,South,178,3.0,3.0,94,0.00,,SKC,0.00,VWS V14.01,2013-02-12 11:15:00,
2013-02-12 06:20:00,64.6,62.8,30.06,South,178,2.0,3.0,94,0.00,,SKC,0.00,VWS V14.01,2013-02-12 11:20:00,
2013-02-12 06:25:00,64.5,62.7,30.06,South,178,0.0,3.0,94,0.00,,SKC,0.00,VWS V14.01,2013-02-12 11:25:00,
2013-02-12 06:30:00,64.5,62.7,30.06,South,178,3.0,4.0,94,0.00,,SKC,0.00,VWS V14.01,2013-02-12 11:30:00,
2013-02-12 06:35:00,64.4,62.6,30.06,South,178,1.0,3.0,94,0.00,,SKC,0.00,VWS V14.01,2013-02-12 11:35:00,
2013-02-12 06:40:00,64.4,62.6,30.07,South,178,3.0,3.0,94,0.00,,SKC,0.00,VWS V14.01,2013-02-12 11:40:00,
2013-02-12 06:45:00,64.4,62.6,30.07,South,178,1.0,4.0,94,0.00,,SKC,0.00,VWS V14.01,2013-02-12 11:45:00,
2013-02-12 06:50:00,64.4,62.6,30.07,South,178,2.0,3.0,94,0.00,,SKC,0.00,VWS V14.01,2013-02-12 11:50:00,
2013-02-12 06:55:00,64.3,62.5,30.07,South,178,2.0,3.0,94,0.00,,SKC,0.00,VWS V14.01,2013-02-12 11:55:00,
2013-02-12 07:00:00,64.3,62.5,30.07,South,178,0.0,3.0,94,0.00,,SKC,0.00,VWS V14.01,2013-02-12 12:00:00,
2013-02-12 07:05:00,64.2,62.4,30.07,South,178,0.0,3.0,94,0.00,,SKC,0.00,VWS V14.01,2013-02-12 12:05:00,
2013-02-12 07:10:00,64.2,62.4,30.08,South,178,0.0,2.0,94,0.00,,SKC,0.00,VWS V14.01,2013-02-12 12:10:00,
2013-02-12 07:15:00,64.2,62.7,30.08,South,178,0.0,1.0,95,0.00,,SKC,0.00,VWS V14.01,2013-02-12 12:15:00,
2013-02-12 07:20:00,64.3,62.5,30.08,South,180,3.0,3.0,94,0.00,,SKC,0.00,VWS V14.01,2013-02-12 12:20:00,
2013-02-12 07:25:00,64.2,62.7,30.08,South,186,1.0,1.0,95,0.00,,SKC,0.00,VWS V14.01,2013-02-12 12:25:00,
2013-02-12 07:30:00,64.2,62.7,30.08,South,186,3.0,3.0,95,0.00,,SKC,0.00,VWS V14.01,2013-02-12 12:30:00,
2013-02-12 07:35:00,64.2,62.7,30.08,South,186,3.0,3.0,95,0.00,,SKC,0.00,VWS V14.01,2013-02-12 12:35:00,
2013-02-12 07:40:00,64.3,62.8,30.09,South,186,1.0,2.0,95,0.00,,SKC,0.00,VWS V14.01,2013-02-12 12:40:00,
2013-02-12 07:45:00,64.3,62.8,30.09,South,186,2.0,2.0,95,0.00,,SKC,0.00,VWS V14.01,2013-02-12 12:45:00,
2013-02-12 07:50:00,64.3,62.8,30.08,South,186,4.0,4.0,95,0.00,,SKC,0.00,VWS V14.01,2013-02-12 12:50:00,
2013-02-12 07:55:00,64.4,62.9,30.08,South,186,2.0,3.0,95,0.00,,SKC,0.00,VWS V14.01,2013-02-12 12:55:00,
2013-02-12 08:00:00,64.4,62.9,30.09,South,175,1.0,6.0,95,0.00,,SKC,0.00,VWS V14.01,2013-02-12 13:00:00,
2013-02-12 08:05:00,64.5,63.0,30.09,South,175,1.0,3.0,95,0.00,,SKC,0.00,VWS V14.01,2013-02-12 13:05:00,
2013-02-12 08:10:00,64.7,63.2,30.08,South,175,1.0,3.0,95,0.00,,SKC,0.00,VWS V14.01,2013-02-12 13:10:00,
2013-02-12 08:15:00,64.8,63.3,30.09,SSE,151,2.0,5.0,95,0.00,,SKC,0.00,VWS V14.01,2013-02-12 13:15:00,
2013-02-12 08:20:00,64.9,63.4,30.09,SSE,157,1.0,5.0,95,0.00,,SKC,0.00,VWS V14.01,2013-02-12 13:20:00,
2013-02-12 08:25:00,65.1,63.6,30.09,SSE,161,0.0,4.0,95,0.00,,SKC,0.00,VWS V14.01,2013-02-12 13:25:00,
2013-02-12 08:30:00,65.4,63.9,30.09,SSE,159,2.0,6.0,95,0.00,,SKC,0.00,VWS V14.01,2013-02-12 13:30:00,
2013-02-12 08:35:00,65.7,64.2,30.09,SSE,161,3.0,4.0,95,0.00,,SKC,0.00,VWS V14.01,2013-02-12 13:35:00,
2013-02-12 08:40:00,65.9,64.1,30.09,SSE,165,5.0,6.0,94,0.00,,SKC,0.00,VWS V14.01,2013-02-12 13:40:00,
2013-02-12 08:45:00,66.3,64.5,30.09,SE,141,4.0,8.0,94,0.00,,SKC,0.00,VWS V14.01,2013-02-12 13:45:00,
2013-02-12 08:50:00,66.6,64.8,30.09,South,176,5.0,8.0,94,0.00,,SKC,0.00,VWS V14.01,2013-02-12 13:50:00,
2013-02-12 08:55:00,66.9,65.1,30.09,South,180,2.0,6.0,94,0.00,,SKC,0.00,VWS V14.01,2013-02-12 13:55:00,
2013-02-12 09:00:00,67.3,65.2,30.10,SSE,159,4.0,6.0,93,0.00,,SKC,0.00,VWS V14.01,2013-02-12 14:00:00,
2013-02-12 09:05:00,67.7,65.6,30.10,SW,217,7.0,8.0,93,0.00,,SKC,0.00,VWS V14.01,2013-02-12 14:05:00,
2013-02-12 09:10:00,68.1,65.7,30.09,SW,219,9.0,9.0,92,0.00,,SKC,0.00,VWS V14.01,2013-02-12 14:10:00,
2013-02-12 09:15:00,68.3,65.6,30.09,SSW,203,7.0,10.0,91,0.00,,SKC,0.00,VWS V14.01,2013-02-12 14:15:00,
2013-02-12 09:20:00,68.4,65.7,30.09,SSW,208,8.0,9.0,91,0.00,,SKC,0.00,VWS V14.01,2013-02-12 14:20:00,
2013-02-12 09:25:00,68.7,66.0,30.09,South,187,7.0,11.0,91,0.00,,SKC,0.00,VWS V14.01,2013-02-12 14:25:00,
2013-02-12 09:30:00,68.9,65.8,30.09,SSW,202,7.0,12.0,90,0.00,,SKC,0.00,VWS V14.01,2013-02-12 14:30:00,
2013-02-12 09:35:00,69.1,66.1,30.09,SSE,167,10.0,13.0,90,0.00,,SKC,0.00,VWS V14.01,2013-02-12 14:35:00,
2013-02-12 09:40:00,69.4,66.3,30.09,SSW,209,7.0,14.0,90,0.00,,SKC,0.00,VWS V14.01,2013-02-12 14:40:00,
2013-02-12 09:45:00,69.7,66.6,30.09,SW,218,7.0,11.0,90,0.00,,SKC,0.00,VWS V14.01,2013-02-12 14:45:00,
2013-02-12 09:50:00,70.0,66.9,30.09,SSW,211,8.0,12.0,90,0.00,,SKC,0.00,VWS V14.01,2013-02-12 14:50:00,
2013-02-12 09:55:00,70.4,67.0,30.09,SW,217,10.0,12.0,89,0.00,,SKC,0.00,VWS V14.01,2013-02-12 14:55:00,
2013-02-12 10:00:00,70.5,66.8,30.09,SSW,206,6.0,15.0,88,0.00,,SKC,0.00,VWS V14.01,2013-02-12 15:00:00,
2013-02-12 10:05:00,70.8,67.1,30.10,SW,217,6.0,11.0,88,0.00,,SKC,0.00,VWS V14.01,2013-02-12 15:05:00,
2013-02-12 10:10:00,71.0,67.3,30.09,SSW,211,7.0,15.0,88,0.00,,SKC,0.00,VWS V14.01,2013-02-12 15:10:00,
2013-02-12 10:15:00,71.5,67.4,30.10,SW,224,11.0,12.0,87,0.00,,SKC,0.00,VWS V14.01,2013-02-12 15:15:00,
2013-02-12 10:20:00,72.1,67.7,30.10,SSW,200,14.0,16.0,86,0.00,,SKC,0.00,VWS V14.01,2013-02-12 15:20:00,
2013-02-12 10:25:00,72.3,67.2,30.10,SSW,203,13.0,13.0,84,0.00,,SKC,0.00,VWS V14.01,2013-02-12 15:25:00,
2013-02-12 10:30:00,72.5,67.4,30.10,SE,136,7.0,16.0,84,0.00,,SKC,0.00,VWS V14.01,2013-02-12 15:30:00,
2013-02-12 10:35:00,73.0,67.5,30.09,SW,217,10.0,12.0,83,0.00,,SKC,0.00,VWS V14.01,2013-02-12 15:35:00,
2013-02-12 10:40:00,73.4,67.6,30.09,SSW,195,3.0,13.0,82,0.00,,SKC,0.00,VWS V14.01,2013-02-12 15:40:00,
2013-02-12 10:45:00,73.7,67.5,30.09,SSW,210,7.0,14.0,81,0.00,,SKC,0.00,VWS V14.01,2013-02-12 15:45:00,
2013-02-12 10:50:00,74.4,67.1,30.09,SSW,198,12.0,14.0,78,0.00,,SKC,0.00,VWS V14.01,2013-02-12 15:50:00,
2013-02-12 10:55:00,74.8,67.5,30.09,SSW,211,7.0,13.0,78,0.00,,SKC,0.00,VWS V14.01,2013-02-12 15:55:00,
2013-02-12 11:00:00,74.8,67.1,30.09,SSW,200,7.0,15.0,77,0.00,,SKC,0.00,VWS V14.01,2013-02-12 16:00:00,
2013-02-12 11:05:00,75.2,67.5,30.09,SW,223,7.0,13.0,77,0.00,,SKC,0.00,VWS V14.01,2013-02-12 16:05:00,
2013-02-12 11:10:00,75.5,67.8,30.09,SSW,211,9.0,13.0,77,0.00,,SKC,0.00,VWS V14.01,2013-02-12 16:10:00,
2013-02-12 11:15:00,75.5,67.4,30.09,WSW,250,8.0,15.0,76,0.00,,SKC,0.00,VWS V14.01,2013-02-12 16:15:00,
2013-02-12 11:20:00,75.5,67.8,30.08,SSW,199,7.0,13.0,77,0.00,,SKC,0.00,VWS V14.01,2013-02-12 16:20:00,
2013-02-12 11:25:00,75.7,67.6,30.08,WSW,245,8.0,12.0,76,0.00,,SKC,0.00,VWS V14.01,2013-02-12 16:25:00,
2013-02-12 11:30:00,76.0,67.5,30.08,SW,226,6.0,10.0,75,0.00,,SKC,0.00,VWS V14.01,2013-02-12 16:30:00,
2013-02-12 11:35:00,76.3,67.0,30.07,SW,236,10.0,13.0,73,0.00,,SKC,0.00,VWS V14.01,2013-02-12 16:35:00,
2013-02-12 11:40:00,76.4,67.1,30.07,SW,216,7.0,11.0,73,0.00,,SKC,0.00,VWS V14.01,2013-02-12 16:40:00,
2013-02-12 11:45:00,76.4,67.1,30.07,SSW,210,5.0,12.0,73,0.00,,SKC,0.00,VWS V14.01,2013-02-12 16:45:00,
2013-02-12 11:50:00,76.4,66.7,30.07,SW,219,11.0,11.0,72,0.00,,SKC,0.00,VWS V14.01,2013-02-12 16:50:00,
2013-02-12 11:55:00,76.5,66.8,30.07,WSW,244,9.0,12.0,72,0.00,,SKC,0.00,VWS V14.01,2013-02-12 16:55:00,
2013-02-12 12:00:00,77.2,66.7,30.06,SSW,199,7.0,12.0,70,0.00,,SKC,0.00,VWS V14.01,2013-02-12 17:00:00,
2013-02-12 12:05:00,77.9,65.6,30.06,SSW,195,7.0,13.0,66,0.00,,SKC,0.00,VWS V14.01,2013-02-12 17:05:00,
2013-02-12 12:10:00,78.3,65.6,30.06,SW,225,9.0,17.0,65,0.00,,SKC,0.00,VWS V14.01,2013-02-12 17:10:00,
2013-02-12 12:15:00,78.6,65.9,30.06,South,190,7.0,14.0,65,0.00,,SKC,0.00,VWS V14.01,2013-02-12 17:15:00,
2013-02-12 12:20:00,78.7,65.5,30.05,SSW,200,5.0,14.0,64,0.00,,SKC,0.00,VWS V14.01,2013-02-12 17:20:00,
2013-02-12 12:25:00,78.1,64.9,30.05,SW,223,7.0,13.0,64,0.00,,SKC,0.00,VWS V14.01,2013-02-12 17:25:00,
2013-02-12 12:30:00,78.3,65.6,30.05,WSW,241,12.0,13.0,65,0.00,,SKC,0.00,VWS V14.01,2013-02-12 17:30:00,
2013-02-12 12:35:00,78.8,64.2,30.04,SW,226,9.0,15.0,61,0.00,,SKC,0.00,VWS V14.01,2013-02-12 17:35:00,
2013-02-12 12:40:00,78.7,65.1,30.04,WSW,246,8.0,13.0,63,0.00,,SKC,0.00,VWS V14.01,2013-02-12 17:40:00,
2013-02-12 12:45:00,78.4,65.2,30.04,WSW,238,12.0,12.0,64,0.00,,SKC,0.00,VWS V14.01,2013-02-12 17:45:00,
2013-02-12 12:50:00,78.7,65.5,30.03,South,191,11.0,12.0,64,0.00,,SKC,0.00,VWS V14.01,2013-02-12 17:50:00,
2013-02-12 12:55:00,79.4,62.9,30.03,SSW,196,7.0,16.0,57,0.00,,SKC,0.00,VWS V14.01,2013-02-12 17:55:00,
2013-02-12 13:00:00,79.6,64.0,30.02,SW,214,13.0,16.0,59,0.00,,SKC,0.00,VWS V14.01,2013-02-12 18:00:00,
2013-02-12 13:05:00,79.7,63.6,30.02,SW,225,9.0,17.0,58,0.00,,SKC,0.00,VWS V14.01,2013-02-12 18:05:00,
2013-02-12 13:10:00,79.4,64.8,30.02,SSW,209,7.0,13.0,61,0.00,,SKC,0.00,VWS V14.01,2013-02-12 18:10:00,
2013-02-12 13:15:00,79.1,64.5,30.01,SSW,210,5.0,9.0,61,0.00,,SKC,0.00,VWS V14.01,2013-02-12 18:15:00,
2013-02-12 13:20:00,79.3,62.8,30.01,SW,223,7.0,14.0,57,0.00,,SKC,0.00,VWS V14.01,2013-02-12 18:20:00,
2013-02-12 13:25:00,79.2,63.7,30.01,SSW,199,9.0,15.0,59,0.00,,SKC,0.00,VWS V14.01,2013-02-12 18:25:00,
2013-02-12 13:30:00,79.5,64.4,30.00,SW,223,5.0,14.0,60,0.00,,SKC,0.00,VWS V14.01,2013-02-12 18:30:00,
2013-02-12 13:35:00,79.5,64.4,30.00,SSW,198,7.0,7.0,60,0.00,,SKC,0.00,VWS V14.01,2013-02-12 18:35:00,
2013-02-12 13:40:00,80.3,64.2,29.99,SW,228,11.0,14.0,58,0.00,,SKC,0.00,VWS V14.01,2013-02-12 18:40:00,
2013-02-12 13:45:00,80.3,64.7,29.99,SSW,210,13.0,14.0,59,0.00,,SKC,0.00,VWS V14.01,2013-02-12 18:45:00,
2013-02-12 13:50:00,80.4,63.8,29.98,WSW,238,9.0,13.0,57,0.00,,SKC,0.00,VWS V14.01,2013-02-12 18:50:00,
2013-02-12 13:55:00,80.5,63.9,29.98,SSW,213,12.0,16.0,57,0.00,,SKC,0.00,VWS V14.01,2013-02-12 18:55:00,
2013-02-12 14:00:00,80.8,64.2,29.98,SW,217,8.0,16.0,57,0.00,,SKC,0.00,VWS V14.01,2013-02-12 19:00:00,
2013-02-12 14:05:00,81.0,63.3,29.97,SSW,194,11.0,16.0,55,0.00,,SKC,0.00,VWS V14.01,2013-02-12 19:05:00,
2013-02-12 14:10:00,81.3,63.6,29.97,SSW,204,6.0,15.0,55,0.00,,SKC,0.00,VWS V14.01,2013-02-12 19:10:00,
2013-02-12 14:15:00,81.9,63.6,29.96,SW,225,7.0,16.0,54,0.00,,SKC,0.00,VWS V14.01,2013-02-12 19:15:00,
2013-02-12 14:20:00,82.0,63.2,29.96,SSW,203,7.0,16.0,53,0.00,,SKC,0.00,VWS V14.01,2013-02-12 19:20:00,
2013-02-12 14:25:00,82.0,62.7,29.96,SW,215,6.0,13.0,52,0.00,,SKC,0.00,VWS V14.01,2013-02-12 19:25:00,
2013-02-12 14:30:00,82.4,62.5,29.96,SSW,208,10.0,18.0,51,0.00,,SKC,0.00,VWS V14.01,2013-02-12 19:30:00,
2013-02-12 14:35:00,82.3,62.4,29.96,WSW,247,11.0,16.0,51,0.00,,SKC,0.00,VWS V14.01,2013-02-12 19:35:00,
2013-02-12 14:40:00,82.3,62.9,29.95,SW,232,9.0,16.0,52,0.00,,SKC,0.00,VWS V14.01,2013-02-12 19:40:00,
2013-02-12 14:45:00,82.1,63.3,29.95,SSW,213,8.0,13.0,53,0.00,,SKC,0.00,VWS V14.01,2013-02-12 19:45:00,
2013-02-12 14:50:00,82.2,63.4,29.95,SW,223,11.0,14.0,53,0.00,,SKC,0.00,VWS V14.01,2013-02-12 19:50:00,
2013-02-12 14:55:00,81.9,63.1,29.95,SW,221,8.0,15.0,53,0.00,,SKC,0.00,VWS V14.01,2013-02-12 19:55:00,
2013-02-12 15:00:00,81.8,63.0,29.95,SW,229,12.0,13.0,53,0.00,,SKC,0.00,VWS V14.01,2013-02-12 20:00:00,
2013-02-12 15:05:00,82.1,63.3,29.95,SW,226,10.0,15.0,53,0.00,,SKC,0.00,VWS V14.01,2013-02-12 20:05:00,
2013-02-12 15:10:00,82.4,63.0,29.94,SSW,210,6.0,13.0,52,0.00,,SKC,0.00,VWS V14.01,2013-02-12 20:10:00,
2013-02-12 15:15:00,82.1,63.3,29.94,SW,234,9.0,13.0,53,0.00,,SKC,0.00,VWS V14.01,2013-02-12 20:15:00,
2013-02-12 15:20:00,81.5,63.3,29.94,SW,223,10.0,14.0,54,0.00,,SKC,0.00,VWS V14.01,2013-02-12 20:20:00,
2013-02-12 15:25:00,81.8,63.5,29.94,South,190,11.0,13.0,54,0.00,,SKC,0.00,VWS V14.01,2013-02-12 20:25:00,
2013-02-12 15:30:00,81.8,63.5,29.94,SSW,211,13.0,18.0,54,0.00,,SKC,0.00,VWS V14.01,2013-02-12 20:30:00,
2013-02-12 15:35:00,81.9,64.2,29.95,SW,221,9.0,13.0,55,0.00,,SKC,0.00,VWS V14.01,2013-02-12 20:35:00,
2013-02-12 15:40:00,82.3,64.5,29.94,SW,218,8.0,9.0,55,0.00,,SKC,0.00,VWS V14.01,2013-02-12 20:40:00,
2013-02-12 15:46:00,82.0,64.3,29.94,SW,219,7.0,10.0,55,0.00,,SKC,0.00,VWS V14.01,2013-02-12 20:46:00,
2013-02-12 15:51:00,81.8,64.1,29.94,WSW,253,8.0,14.0,55,0.00,,SKC,0.00,VWS V14.01,2013-02-12 20:51:00,
2013-02-12 15:56:00,82.1,64.3,29.94,SW,225,7.0,13.0,55,0.00,,SKC,0.00,VWS V14.01,2013-02-12 20:56:00,
2013-02-12 16:01:00,81.9,64.7,29.94,SSW,203,7.0,9.0,56,0.00,,SKC,0.00,VWS V14.01,2013-02-12 21:01:00,
2013-02-12 16:06:00,81.8,64.6,29.94,SSW,196,6.0,14.0,56,0.00,,SKC,0.00,VWS V14.01,2013-02-12 21:06:00,
2013-02-12 16:11:00,81.5,64.8,29.94,SSW,192,7.0,10.0,57,0.00,,SKC,0.00,VWS V14.01,2013-02-12 21:11:00,
2013-02-12 16:16:00,81.4,65.2,29.93,SW,221,8.0,9.0,58,0.00,,SKC,0.00,VWS V14.01,2013-02-12 21:16:00,
2013-02-12 16:21:00,81.4,65.2,29.93,SW,233,11.0,11.0,58,0.00,,SKC,0.00,VWS V14.01,2013-02-12 21:21:00,
2013-02-12 16:26:00,81.6,64.9,29.93,SW,235,10.0,13.0,57,0.00,,SKC,0.00,VWS V14.01,2013-02-12 21:26:00,
2013-02-12 16:31:00,81.6,64.9,29.93,SW,221,10.0,10.0,57,0.00,,SKC,0.00,VWS V14.01,2013-02-12 21:31:00,
2013-02-12 16:36:00,81.8,65.1,29.93,WSW,251,9.0,13.0,57,0.00,,SKC,0.00,VWS V14.01,2013-02-12 21:36:00,
2013-02-12 16:41:00,81.6,64.9,29.93,SSW,209,11.0,16.0,57,0.00,,SKC,0.00,VWS V14.01,2013-02-12 21:41:00,
2013-02-12 16:46:00,81.5,64.8,29.94,SW,227,6.0,9.0,57,0.00,,SKC,0.00,VWS V14.01,2013-02-12 21:46:00,
2013-02-12 16:52:00,81.4,64.7,29.94,SW,233,6.0,9.0,57,0.00,,SKC,0.00,VWS V14.01,2013-02-12 21:52:00,
2013-02-12 16:57:00,81.1,64.9,29.93,SW,229,7.0,11.0,58,0.00,,SKC,0.00,VWS V14.01,2013-02-12 21:57:00,
2013-02-12 17:02:00,80.9,64.8,29.94,SW,220,8.0,14.0,58,0.00,,SKC,0.00,VWS V14.01,2013-02-12 22:02:00,
2013-02-12 17:07:00,80.9,64.2,29.94,SW,229,10.0,12.0,57,0.00,,SKC,0.00,VWS V14.01,2013-02-12 22:07:00,
2013-02-12 17:12:00,81.0,64.3,29.93,SW,226,7.0,8.0,57,0.00,,SKC,0.00,VWS V14.01,2013-02-12 22:12:00,
2013-02-12 17:17:00,80.9,64.8,29.93,SSW,207,9.0,11.0,58,0.00,,SKC,0.00,VWS V14.01,2013-02-12 22:17:00,
2013-02-12 17:22:00,80.7,65.1,29.93,SW,227,8.0,9.0,59,0.00,,SKC,0.00,VWS V14.01,2013-02-12 22:22:00,
2013-02-12 17:27:00,80.8,65.2,29.93,SW,223,10.0,12.0,59,0.00,,SKC,0.00,VWS V14.01,2013-02-12 22:27:00,
2013-02-12 17:32:00,80.6,65.4,29.93,SSW,211,8.0,17.0,60,0.00,,SKC,0.00,VWS V14.01,2013-02-12 22:32:00,
2013-02-12 17:37:00,80.3,65.6,29.93,SSW,207,7.0,12.0,61,0.00,,SKC,0.00,VWS V14.01,2013-02-12 22:37:00,
2013-02-12 17:42:00,80.1,65.9,29.93,SW,227,10.0,13.0,62,0.00,,SKC,0.00,VWS V14.01,2013-02-12 22:42:00,
2013-02-12 17:47:00,79.9,65.7,29.93,SW,215,11.0,12.0,62,0.00,,SKC,0.00,VWS V14.01,2013-02-12 22:47:00,
2013-02-12 17:52:00,79.9,65.7,29.93,SW,215,7.0,8.0,62,0.00,,SKC,0.00,VWS V14.01,2013-02-12 22:52:00,
2013-02-12 17:57:00,79.8,65.6,29.93,SSW,206,7.0,13.0,62,0.00,,SKC,0.00,VWS V14.01,2013-02-12 22:57:00,
2013-02-12 18:02:00,79.6,65.4,29.93,SSW,207,7.0,13.0,62,0.00,,SKC,0.00,VWS V14.01,2013-02-12 23:02:00,
2013-02-12 18:07:00,79.5,65.8,29.93,SSW,213,4.0,9.0,63,0.00,,SKC,0.00,VWS V14.01,2013-02-12 23:07:00,
2013-02-12 18:12:00,79.2,66.0,29.93,SSW,209,5.0,10.0,64,0.00,,SKC,0.00,VWS V14.01,2013-02-12 23:12:00,
2013-02-12 18:17:00,78.9,65.2,29.94,SW,236,9.0,11.0,63,0.00,,SKC,0.00,VWS V14.01,2013-02-12 23:17:00,
2013-02-12 18:22:00,78.7,65.1,29.94,SW,216,10.0,12.0,63,0.00,,SKC,0.00,VWS V14.01,2013-02-12 23:22:00,
2013-02-12 18:27:00,78.5,65.3,29.94,SW,218,6.0,12.0,64,0.00,,SKC,0.00,VWS V14.01,2013-02-12 23:27:00,
2013-02-12 18:32:00,78.2,65.0,29.94,SW,218,7.0,11.0,64,0.00,,SKC,0.00,VWS V14.01,2013-02-12 23:32:00,
2013-02-12 18:37:00,77.9,64.8,29.94,SW,215,10.0,11.0,64,0.00,,SKC,0.00,VWS V14.01,2013-02-12 23:37:00,
2013-02-12 18:42:00,77.9,64.8,29.94,SSW,210,10.0,11.0,64,0.00,,SKC,0.00,VWS V14.01,2013-02-12 23:42:00,
2013-02-12 18:47:00,77.6,64.9,29.94,SW,231,8.0,11.0,65,0.00,,SKC,0.00,VWS V14.01,2013-02-12 23:47:00,
2013-02-12 18:52:00,77.4,65.2,29.94,SW,221,6.0,11.0,66,0.00,,SKC,0.00,VWS V14.01,2013-02-12 23:52:00,
2013-02-12 18:57:00,77.2,65.4,29.94,SW,219,6.0,9.0,67,0.00,,SKC,0.00,VWS V14.01,2013-02-12 23:57:00,
2013-02-12 19:02:00,77.0,65.2,29.94,SW,220,3.0,7.0,67,0.00,,SKC,0.00,VWS V14.01,2013-02-13 00:02:00,
2013-02-12 19:07:00,76.7,65.3,29.94,SSW,206,3.0,7.0,68,0.00,,SKC,0.00,VWS V14.01,2013-02-13 00:07:00,
2013-02-12 19:12:00,76.4,65.5,29.94,SSW,210,3.0,6.0,69,0.00,,SKC,0.00,VWS V14.01,2013-02-13 00:12:00,
2013-02-12 19:17:00,76.2,65.7,29.94,SW,222,2.0,6.0,70,0.00,,SKC,0.00,VWS V14.01,2013-02-13 00:17:00,
2013-02-12 19:22:00,76.0,65.5,29.95,SSW,211,4.0,6.0,70,0.00,,SKC,0.00,VWS V14.01,2013-02-13 00:22:00,
2013-02-12 19:27:00,75.8,65.7,29.95,SSW,210,4.0,6.0,71,0.00,,SKC,0.00,VWS V14.01,2013-02-13 00:27:00,
2013-02-12 19:32:00,75.6,65.5,29.95,SW,224,3.0,8.0,71,0.00,,SKC,0.00,VWS V14.01,2013-02-13 00:32:00,
2013-02-12 19:37:00,75.4,65.8,29.95,SW,223,5.0,8.0,72,0.00,,SKC,0.00,VWS V14.01,2013-02-13 00:37:00,
2013-02-12 19:42:00,75.3,66.1,29.95,SW,229,8.0,8.0,73,0.00,,SKC,0.00,VWS V14.01,2013-02-13 00:42:00,
2013-02-12 19:47:00,75.3,66.1,29.95,SW,233,11.0,11.0,73,0.00,,SKC,0.00,VWS V14.01,2013-02-13 00:47:00,
2013-02-12 19:52:00,75.3,66.1,29.95,WSW,244,12.0,13.0,73,0.00,,SKC,0.00,VWS V14.01,2013-02-13 00:52:00,
2013-02-12 19:57:00,75.2,66.3,29.95,SW,217,7.0,14.0,74,0.00,,SKC,0.00,VWS V14.01,2013-02-13 00:57:00,
2013-02-12 20:02:00,74.9,66.1,29.95,SSW,200,11.0,11.0,74,0.00,,SKC,0.00,VWS V14.01,2013-02-13 01:02:00,
2013-02-12 20:07:00,74.8,66.3,29.95,WSW,244,11.0,13.0,75,0.00,,SKC,0.00,VWS V14.01,2013-02-13 01:07:00,
2013-02-12 20:12:00,74.6,66.5,29.95,SSW,210,7.0,10.0,76,0.00,,SKC,0.00,VWS V14.01,2013-02-13 01:12:00,
2013-02-12 20:17:00,74.4,66.3,29.95,SW,232,11.0,11.0,76,0.00,,SKC,0.00,VWS V14.01,2013-02-13 01:17:00,
2013-02-12 20:22:00,74.2,66.5,29.95,SW,227,8.0,12.0,77,0.00,,SKC,0.00,VWS V14.01,2013-02-13 01:22:00,
2013-02-12 20:27:00,73.9,66.2,29.95,SW,221,4.0,10.0,77,0.00,,SKC,0.00,VWS V14.01,2013-02-13 01:27:00,
2013-02-12 20:32:00,73.7,66.4,29.95,SW,221,7.0,13.0,78,0.00,,SKC,0.00,VWS V14.01,2013-02-13 01:32:00,
2013-02-12 20:37:00,73.5,66.6,29.96,SW,227,6.0,11.0,79,0.00,,SKC,0.00,VWS V14.01,2013-02-13 01:37:00,
2013-02-12 20:42:00,73.3,66.8,29.96,WSW,244,8.0,10.0,80,0.00,,SKC,0.00,VWS V14.01,2013-02-13 01:42:00,
2013-02-12 20:47:00,73.1,66.9,29.96,SW,227,6.0,12.0,81,0.00,,SKC,0.00,VWS V14.01,2013-02-13 01:47:00,
2013-02-12 20:52:00,72.8,67.0,29.96,SSW,207,8.0,11.0,82,0.00,,SKC,0.00,VWS V14.01,2013-02-13 01:52:00,
2013-02-12 20:57:00,72.7,66.9,29.96,SW,227,6.0,9.0,82,0.00,,SKC,0.00,VWS V14.01,2013-02-13 01:57:00,
2013-02-12 21:02:00,72.6,67.2,29.96,SSW,207,7.0,14.0,83,0.00,,SKC,0.00,VWS V14.01,2013-02-13 02:02:00,
2013-02-12 21:07:00,72.4,66.9,29.96,SSW,207,7.0,7.0,83,0.00,,SKC,0.00,VWS V14.01,2013-02-13 02:07:00,
2013-02-12 21:12:00,72.3,67.2,29.96,SSW,198,8.0,9.0,84,0.00,,SKC,0.00,VWS V14.01,2013-02-13 02:12:00,
2013-02-12 21:17:00,72.2,67.4,29.96,SSW,209,6.0,10.0,85,0.00,,SKC,0.00,VWS V14.01,2013-02-13 02:17:00,
2013-02-12 21:22:00,72.1,67.3,29.96,SW,222,8.0,12.0,85,0.00,,SKC,0.00,VWS V14.01,2013-02-13 02:22:00,
2013-02-12 21:27:00,72.0,67.6,29.96,South,169,7.0,12.0,86,0.00,,SKC,0.00,VWS V14.01,2013-02-13 02:27:00,
2013-02-12 21:32:00,71.8,67.4,29.96,SW,227,7.0,10.0,86,0.00,,SKC,0.00,VWS V14.01,2013-02-13 02:32:00,
2013-02-12 21:37:00,71.7,67.6,29.96,SW,221,7.0,13.0,87,0.00,,SKC,0.00,VWS V14.01,2013-02-13 02:37:00,
2013-02-12 21:42:00,71.6,67.5,29.96,SW,220,6.0,11.0,87,0.00,,SKC,0.00,VWS V14.01,2013-02-13 02:42:00,
2013-02-12 21:47:00,71.5,67.4,29.96,SW,214,12.0,13.0,87,0.00,,SKC,0.00,VWS V14.01,2013-02-13 02:47:00,
2013-02-12 21:52:00,71.5,67.8,29.96,SSW,213,5.0,13.0,88,0.00,,SKC,0.00,VWS V14.01,2013-02-13 02:52:00,
2013-02-12 21:57:00,71.4,67.7,29.96,WSW,240,9.0,11.0,88,0.00,,SKC,0.00,VWS V14.01,2013-02-13 02:57:00,
2013-02-12 22:02:00,71.3,67.6,29.96,SSW,213,6.0,11.0,88,0.00,,SKC,0.00,VWS V14.01,2013-02-13 03:02:00,
2013-02-12 22:07:00,71.3,67.9,29.96,SW,215,10.0,12.0,89,0.00,,SKC,0.00,VWS V14.01,2013-02-13 03:07:00,
2013-02-12 22:12:00,71.2,67.8,29.96,SSW,198,13.0,13.0,89,0.00,,SKC,0.00,VWS V14.01,2013-02-13 03:12:00,
2013-02-12 22:17:00,71.1,67.7,29.96,South,188,9.0,10.0,89,0.00,,SKC,0.00,VWS V14.01,2013-02-13 03:17:00,
2013-02-12 22:22:00,71.0,67.6,29.96,SSW,205,10.0,10.0,89,0.00,,SKC,0.00,VWS V14.01,2013-02-13 03:22:00,
2013-02-12 22:27:00,70.9,67.8,29.96,South,190,6.0,9.0,90,0.00,,SKC,0.00,VWS V14.01,2013-02-13 03:27:00,
2013-02-12 22:32:00,70.8,67.7,29.96,SSW,211,4.0,7.0,90,0.00,,SKC,0.00,VWS V14.01,2013-02-13 03:32:00,
2013-02-12 22:37:00,70.6,67.5,29.96,SSW,194,5.0,10.0,90,0.00,,SKC,0.00,VWS V14.01,2013-02-13 03:37:00,
2013-02-12 22:42:00,70.5,67.4,29.96,SSW,194,7.0,10.0,90,0.00,,SKC,0.00,VWS V14.01,2013-02-13 03:42:00,
2013-02-12 22:47:00,70.4,67.7,29.96,SSW,211,7.0,11.0,91,0.00,,SKC,0.00,VWS V14.01,2013-02-13 03:47:00,
2013-02-12 22:52:00,70.2,67.4,29.96,SSW,210,3.0,9.0,91,0.00,,SKC,0.00,VWS V14.01,2013-02-13 03:52:00,
2013-02-12 22:57:00,70.1,67.4,29.96,South,191,10.0,10.0,91,0.00,,SKC,0.00,VWS V14.01,2013-02-13 03:57:00,
2013-02-12 23:02:00,70.1,67.7,29.96,SSW,205,6.0,10.0,92,0.00,,SKC,0.00,VWS V14.01,2013-02-13 04:02:00,
2013-02-12 23:07:00,70.0,67.6,29.96,SSW,199,7.0,9.0,92,0.00,,SKC,0.00,VWS V14.01,2013-02-13 04:07:00,
2013-02-12 23:12:00,70.0,67.6,29.96,SSW,195,7.0,9.0,92,0.00,,SKC,0.00,VWS V14.01,2013-02-13 04:12:00,
2013-02-12 23:17:00,69.9,67.5,29.96,SW,222,7.0,8.0,92,0.00,,SKC,0.00,VWS V14.01,2013-02-13 04:17:00,
2013-02-12 23:22:00,69.9,67.5,29.96,SW,216,8.0,11.0,92,0.00,,SKC,0.00,VWS V14.01,2013-02-13 04:22:00,
2013-02-12 23:27:00,69.8,67.7,29.96,SW,222,4.0,7.0,93,0.00,,SKC,0.00,VWS V14.01,2013-02-13 04:27:00,
2013-02-12 23:32:00,69.7,67.6,29.96,SW,215,6.0,8.0,93,0.00,,SKC,0.00,VWS V14.01,2013-02-13 04:32:00,
2013-02-12 23:37:00,69.7,67.6,29.96,SW,220,6.0,7.0,93,0.00,,SKC,0.00,VWS V14.01,2013-02-13 04:37:00,
2013-02-12 23:42:00,69.7,67.6,29.96,SSW,206,7.0,8.0,93,0.00,,SKC,0.00,VWS V14.01,2013-02-13 04:42:00,
2013-02-12 23:47:00,69.7,67.6,29.96,SW,219,9.0,10.0,93,0.00,,SKC,0.00,VWS V14.01,2013-02-13 04:47:00,
2013-02-12 23:52:00,69.7,67.6,29.96,SW,220,4.0,8.0,93,0.00,,SKC,0.00,VWS V14.01,2013-02-13 04:52:00,
2013-02-12 23:57:00,69.7,67.6,29.95,SW,221,4.0,8.0,93,0.00,,SKC,0.00,VWS V14.01,2013-02-13 04:57:00,